Regional Weather Roundup
Issued by NWS

Home | Current Version | Previous Version | Graphics & Text | Print | Product List | Glossary On
Versions: 1 2 3 4 5 6 7 8 9 10 11 12 13 14 15 16 17 18 19 20 21 22 23 24 25 26 27 28 29 30 31 32 33 34 35 36 37 38 39 40 41 42 43 44 45 46 47 48 49 50
000
ASUS45 KTFX 260310
RWRMT
MONTANA REGIONAL WEATHER ROUNDUP
NATIONAL WEATHER SERVICE GREAT FALLS MT
900 PM MDT MON MAY 25 2015

NOTE: "FAIR" INDICATES FEW OR NO CLOUDS BELOW 12000 FEET WITH NO
SIGNIFICANT WEATHER AND/OR OBSTRUCTIONS TO VISIBILITY.

MTZ001>007-043-260400-
WEST OF THE DIVIDE

CITY           SKY/WX    TMP DP  RH WIND       PRES   REMARKS
KALISPELL      MOCLDY    56  47  71 SE6       29.90S
MISSOULA       CLOUDY    55  49  80 CALM      29.94S
BUTTE          MOCLDY    54  40  59 N12G20    29.94R
MULLAN PASS    LGT RAIN  44  43  96 S7        29.96F
DEER LODGE       N/A     54  46  76 W13G18    29.98R
EUREKA           N/A     55  46  71 E9        29.90R
HAMILTON         N/A     55  45  67 NW6       29.93R
LIBBY            N/A     57  48  72 SE5       29.89S
RONAN            N/A     54  50  86 S2        29.98S
THOMPSON FALLS   N/A     58  50  75 NE7       29.95S
$$

MTZ008-052>055-260400-
SOUTHWEST MONTANA

CITY           SKY/WX    TMP DP  RH WIND       PRES   REMARKS
BOZEMAN        PTCLDY    61  40  45 W8        29.85R
DILLON         CLOUDY    57  41  55 N6        29.89R
W YELLOWSTONE  MOCLDY    46  43  87 E6        29.99S
THREE FORKS      N/A     61  61 100 S1        29.87S
TWIN BRIDGES     N/A     60  38  44 N16       29.88S
$$

MTZ009-010-012-014-046-048-049-054-260400-
EAST SLOPES AND CENTRAL MONTANA

CITY           SKY/WX    TMP DP  RH WIND       PRES   REMARKS
CUT BANK       CLOUDY    57  44  62 S9        29.87F
GREAT FALLS    CLOUDY    60  46  59 NE7       29.83S
HELENA         CLOUDY    59  47  64 NW10      29.88R
CONRAD           N/A     58  50  75 W17       29.91R
$$

MTZ011-013-016-021-045-047-050-051-260400-
NORTH CENTRAL MONTANA

CITY           SKY/WX    TMP DP  RH WIND       PRES   REMARKS
HAVRE          CLEAR     63  44  50 E7        29.82R
LEWISTOWN      PTCLDY    58  45  62 SE7       29.88R
N BAR RANCH    CLOUDY    55  48  76 S6        29.93S
CHINOOK          N/A     70  39  32 E5        29.83R
FORT BENTON      N/A     68  45  42 CALM      29.83R
$$

MTZ017>020-022>027-061-062-260400-
NORTHEAST MONTANA

CITY           SKY/WX    TMP DP  RH WIND       PRES   REMARKS
GLASGOW        CLEAR     62  46  55 E8        29.85R
JORDAN           N/A     61  51  70 CALM      29.86S
SIDNEY         MOCLDY    61  46  59 CALM      29.89S
WOLF POINT     PTCLDY    64  48  56 E3        29.88R
MALTA            N/A     67  49  52 SE8       29.81R
POPLAR           N/A     63  52  67 CALM      29.89R
SCOBEY           N/A     61  42  49 S1        29.89R
$$

MTZ028>42-056>058-260400-
SOUTHCENTRAL AND SOUTHEAST MONTANA

CITY           SKY/WX    TMP DP  RH WIND       PRES   REMARKS
BAKER          CLEAR     52  48  86 SE5       29.93R
BILLINGS       PTCLDY    63  43  48 SE10      29.89R
LIVINGSTON     CLEAR     59  45  59 E9        29.86S
MILES CITY     MOCLDY    60  50  69 VRB5      29.88S
BIG TIMBER       N/A     59  45  58 E8        29.89S
EKALAKA          N/A     53  48  83 SE9       29.92S
FORSYTH          N/A     57  54  88 SE6       29.88S
LAUREL           N/A     60  42  51 CALM      29.89S
ROUNDUP          N/A     59  45  59 CALM      29.82R
$$

REGIONAL REPORTS...DAKOTAS

CITY           SKY/WX    TMP DP  RH WIND       PRES   REMARKS
WILLISTON      PTCLDY    59  48  67 SW8       29.88R
MINOT          CLEAR     67  45  45 SW9       29.81R
DICKINSON      CLEAR     53  45  74 SW8       29.89R
BEACH          FAIR      54  52  94 S6        29.93R
CROSBY         FAIR      64  48  55 SW13G21   29.86R
WATFORD CITY   FAIR      57  46  67 W5        29.87R
BISMARCK       PTCLDY    61  54  77 SW6       29.86R
GRAND FORKS    PTCLDY    59  49  69 S8        29.79R
FARGO          PTCLDY    57  53  86 CALM      29.82S
BUFFALO SD       N/A     56  51  84 CALM      29.86F
RAPID CITY     CLOUDY    53  51  93 N7        29.92R
$$

REGIONAL REPORTS...WYOMING/IDAHO/WASHINGTON

CITY           SKY/WX    TMP DP  RH WIND       PRES   REMARKS
GILLETTE       CLOUDY    53  49  86 NE7       29.94S
SHERIDAN       PTCLDY    54  48  80 S5        29.93F
BUFFALO WY     MOCLDY    51  46  83 CALM      29.97S
CODY           MOCLDY    55  46  71 CALM      29.93S
YELLOWSTONE LA   N/A     43  38  82 CALM      30.06R
IDAHO FALLS    CLOUDY    57  46  66 S14G23    29.95R
SALMON         CLOUDY    54  48  82 S8        29.93R
BOISE          LGT RAIN  62  51  67 N15       29.89R
SPOKANE        MOCLDY    57  47  69 CALM      29.87S
$$

REGIONAL REPORTS...ALBERTA

CITY           SKY/WX    TMP DP  RH WIND       PRES   REMARKS
EDMONTON       MOCLDY    72  37  28 W6        29.84R
CALGARY        CLOUDY    63  41  45 W8        29.88R
LETHBRIDGE     MOCLDY    61  48  63 SW5       29.83S
MEDICINE HAT   MOCLDY    72  37  28 S5        29.81S
$$

REGIONAL REPORTS...SASKATCHEWAN

CITY           SKY/WX    TMP DP  RH WIND       PRES   REMARKS
SWIFT CURRENT  PTCLDY    66  36  32 SE5       29.85S
REGINA         MOCLDY    68  37  32 SW7       29.83R
SASKATOON      PTCLDY    68  41  37 E2        29.82R
$$


USA.gov is the U.S. government's official web portal to all federal, state and local government web resources and services.